Year,Month,Day,Hour,Minute,Value (Times are PST for temperature in C)
2017,05,22,00,00,15.80
2017,05,22,00,01,15.80
2017,05,22,00,02,15.80
2017,05,22,00,03,15.80
2017,05,22,00,04,15.80
2017,05,22,00,05,15.80
2017,05,22,00,06,15.80
2017,05,22,00,07,15.90
2017,05,22,00,08,15.90
2017,05,22,00,09,15.90
2017,05,22,00,10,15.90
2017,05,22,00,11,15.90
2017,05,22,00,12,15.80
2017,05,22,00,13,15.80
2017,05,22,00,14,15.80
2017,05,22,00,15,15.80
2017,05,22,00,16,15.80
2017,05,22,00,17,15.80
2017,05,22,00,18,15.80
2017,05,22,00,19,15.70
2017,05,22,00,20,15.70
2017,05,22,00,21,15.70
2017,05,22,00,22,15.60
2017,05,22,00,23,15.60
2017,05,22,00,24,15.50
2017,05,22,00,25,15.50
2017,05,22,00,26,15.50
2017,05,22,00,27,15.40
2017,05,22,00,28,15.40
2017,05,22,00,29,15.30
2017,05,22,00,30,15.30
2017,05,22,00,31,15.30
2017,05,22,00,32,15.30
2017,05,22,00,33,15.30
2017,05,22,00,34,15.30
2017,05,22,00,35,15.20
2017,05,22,00,36,15.20
2017,05,22,00,37,15.20
2017,05,22,00,38,15.20
2017,05,22,00,39,15.20
2017,05,22,00,40,15.20
2017,05,22,00,41,15.20
2017,05,22,00,42,15.20
2017,05,22,00,43,15.20
2017,05,22,00,44,15.20
2017,05,22,00,45,15.20
2017,05,22,00,46,15.20
2017,05,22,00,47,15.20
2017,05,22,00,48,15.20
2017,05,22,00,49,15.20
2017,05,22,00,50,15.20
2017,05,22,00,51,15.20
2017,05,22,00,52,15.20
2017,05,22,00,53,15.10
2017,05,22,00,54,15.00
2017,05,22,00,55,15.10
2017,05,22,00,56,15.00
2017,05,22,00,57,15.10
2017,05,22,00,58,15.00
2017,05,22,00,59,15.10
2017,05,22,01,00,15.10
2017,05,22,01,01,15.20
2017,05,22,01,02,15.20
2017,05,22,01,03,15.20
2017,05,22,01,04,15.30
2017,05,22,01,05,15.30
2017,05,22,01,06,15.30
2017,05,22,01,07,15.20
2017,05,22,01,08,15.20
2017,05,22,01,09,15.20
2017,05,22,01,10,15.20
2017,05,22,01,11,15.20
2017,05,22,01,12,15.20
2017,05,22,01,13,15.20
2017,05,22,01,14,15.20
2017,05,22,01,15,15.20
2017,05,22,01,16,15.20
2017,05,22,01,17,15.30
2017,05,22,01,18,15.30
2017,05,22,01,19,15.30
2017,05,22,01,20,15.30
2017,05,22,01,21,15.40
2017,05,22,01,22,15.40
2017,05,22,01,23,15.40
2017,05,22,01,24,15.40
2017,05,22,01,25,15.40
2017,05,22,01,26,15.40
2017,05,22,01,27,15.40
2017,05,22,01,28,15.40
2017,05,22,01,29,15.40
2017,05,22,01,30,15.40
2017,05,22,01,31,15.30
2017,05,22,01,32,15.30
2017,05,22,01,33,15.30
2017,05,22,01,34,15.30
2017,05,22,01,35,15.30
2017,05,22,01,36,15.30
2017,05,22,01,37,15.30
2017,05,22,01,38,15.30
2017,05,22,01,39,15.20
2017,05,22,01,40,15.20
2017,05,22,01,41,15.20
2017,05,22,01,42,15.20
2017,05,22,01,43,15.20
2017,05,22,01,44,15.20
2017,05,22,01,45,15.20
2017,05,22,01,46,15.20
2017,05,22,01,47,15.10
2017,05,22,01,48,15.20
2017,05,22,01,49,15.20
2017,05,22,01,50,15.20
2017,05,22,01,51,15.20
2017,05,22,01,52,15.20
2017,05,22,01,53,15.20
2017,05,22,01,54,15.20
2017,05,22,01,55,15.20
2017,05,22,01,56,15.20
2017,05,22,01,57,15.20
2017,05,22,01,58,15.20
2017,05,22,01,59,15.20
2017,05,22,02,00,15.20
2017,05,22,02,01,15.20
2017,05,22,02,02,15.20
2017,05,22,02,03,15.20
2017,05,22,02,04,15.20
2017,05,22,02,05,15.20
2017,05,22,02,06,15.20
2017,05,22,02,07,15.10
2017,05,22,02,08,15.00
2017,05,22,02,09,15.00
2017,05,22,02,10,15.00
2017,05,22,02,11,15.00
2017,05,22,02,12,15.00
2017,05,22,02,13,15.00
2017,05,22,02,14,15.00
2017,05,22,02,15,15.00
2017,05,22,02,16,15.00
2017,05,22,02,17,15.00
2017,05,22,02,18,15.00
2017,05,22,02,19,15.00
2017,05,22,02,20,15.00
2017,05,22,02,21,15.00
2017,05,22,02,22,15.00
2017,05,22,02,23,15.00
2017,05,22,02,24,15.00
2017,05,22,02,25,15.00
2017,05,22,02,26,15.00
2017,05,22,02,27,15.10
2017,05,22,02,28,15.20
2017,05,22,02,29,15.30
2017,05,22,02,30,15.30
2017,05,22,02,31,15.30
2017,05,22,02,32,15.40
2017,05,22,02,33,15.40
2017,05,22,02,34,15.50
2017,05,22,02,35,15.50
2017,05,22,02,36,15.60
2017,05,22,02,37,15.60
2017,05,22,02,38,15.70
2017,05,22,02,39,15.70
2017,05,22,02,40,15.70
2017,05,22,02,41,15.70
2017,05,22,02,42,15.60
2017,05,22,02,43,15.60
2017,05,22,02,44,15.60
2017,05,22,02,45,15.60
2017,05,22,02,46,15.60
2017,05,22,02,47,15.50
2017,05,22,02,48,15.50
2017,05,22,02,49,15.40
2017,05,22,02,50,15.40
2017,05,22,02,51,15.40
2017,05,22,02,52,15.40
2017,05,22,02,53,15.30
2017,05,22,02,54,15.30
2017,05,22,02,55,15.30
2017,05,22,02,56,15.20
2017,05,22,02,57,15.20
2017,05,22,02,58,15.20
2017,05,22,02,59,15.20
2017,05,22,03,00,15.10
2017,05,22,03,01,15.10
2017,05,22,03,02,15.00
2017,05,22,03,03,15.00
2017,05,22,03,04,15.00
2017,05,22,03,05,15.00
2017,05,22,03,06,15.00
2017,05,22,03,07,15.00
2017,05,22,03,08,15.00
2017,05,22,03,09,15.00
2017,05,22,03,10,15.00
2017,05,22,03,11,15.00
2017,05,22,03,12,15.00
2017,05,22,03,13,15.00
2017,05,22,03,14,15.00
2017,05,22,03,15,15.00
2017,05,22,03,16,15.00
2017,05,22,03,17,15.00
2017,05,22,03,18,15.00
2017,05,22,03,19,15.00
2017,05,22,03,20,15.10
2017,05,22,03,21,15.20
2017,05,22,03,22,15.30
2017,05,22,03,23,15.40
2017,05,22,03,24,15.40
2017,05,22,03,25,15.40
2017,05,22,03,26,15.50
2017,05,22,03,27,15.50
2017,05,22,03,28,15.60
2017,05,22,03,29,15.60
2017,05,22,03,30,15.60
2017,05,22,03,31,15.60
2017,05,22,03,32,15.70
2017,05,22,03,33,15.70
2017,05,22,03,34,15.70
2017,05,22,03,35,15.70
2017,05,22,03,36,15.70
2017,05,22,03,37,15.70
2017,05,22,03,38,15.70
2017,05,22,03,39,15.70
2017,05,22,03,40,15.70
2017,05,22,03,41,15.70
2017,05,22,03,42,15.80
2017,05,22,03,43,15.80
2017,05,22,03,44,15.80
2017,05,22,03,45,15.90
2017,05,22,03,46,15.90
2017,05,22,03,47,15.90
2017,05,22,03,48,16.00
2017,05,22,03,49,16.00
2017,05,22,03,50,16.10
2017,05,22,03,51,16.10
2017,05,22,03,52,16.10
2017,05,22,03,53,16.20
2017,05,22,03,54,16.20
2017,05,22,03,55,16.20
2017,05,22,03,56,16.20
2017,05,22,03,57,16.20
2017,05,22,03,58,16.20
2017,05,22,03,59,16.20
2017,05,22,04,00,16.30
2017,05,22,04,01,16.30
2017,05,22,04,02,16.30
2017,05,22,04,03,16.30
2017,05,22,04,04,16.30
2017,05,22,04,05,16.30
2017,05,22,04,06,16.30
2017,05,22,04,07,16.30
2017,05,22,04,08,16.40
2017,05,22,04,09,16.40
2017,05,22,04,10,16.40
2017,05,22,04,11,16.40
2017,05,22,04,12,16.30
2017,05,22,04,13,16.30
2017,05,22,04,14,16.30
2017,05,22,04,15,16.30
2017,05,22,04,16,16.20
2017,05,22,04,17,16.20
2017,05,22,04,18,16.10
2017,05,22,04,19,16.10
2017,05,22,04,20,16.00
2017,05,22,04,21,15.90
2017,05,22,04,22,15.90
2017,05,22,04,23,15.80
2017,05,22,04,24,15.80
2017,05,22,04,25,15.70
2017,05,22,04,26,15.70
2017,05,22,04,27,15.60
2017,05,22,04,28,15.60
2017,05,22,04,29,15.60
2017,05,22,04,30,15.60
2017,05,22,04,31,15.60
2017,05,22,04,32,15.60
2017,05,22,04,33,15.60
2017,05,22,04,34,15.70
2017,05,22,04,35,15.70
2017,05,22,04,36,15.70
2017,05,22,04,37,15.70
2017,05,22,04,38,15.60
2017,05,22,04,39,15.60
2017,05,22,04,40,15.60
2017,05,22,04,41,15.60
2017,05,22,04,42,15.50
2017,05,22,04,43,15.40
2017,05,22,04,44,15.40
2017,05,22,04,45,15.30
2017,05,22,04,46,15.30
2017,05,22,04,47,15.20
2017,05,22,04,48,15.10
2017,05,22,04,49,15.00
2017,05,22,04,50,15.00
2017,05,22,04,51,15.00
2017,05,22,04,52,15.00
2017,05,22,04,53,15.00
2017,05,22,04,54,15.00
2017,05,22,04,55,15.00
2017,05,22,04,56,15.00
2017,05,22,04,57,15.00
2017,05,22,04,58,15.00
2017,05,22,04,59,15.00
2017,05,22,05,00,14.90
2017,05,22,05,01,14.90
2017,05,22,05,02,14.80
2017,05,22,05,03,14.80
2017,05,22,05,04,14.90
2017,05,22,05,05,14.90
2017,05,22,05,06,15.00
2017,05,22,05,07,15.00
2017,05,22,05,08,15.00
2017,05,22,05,09,15.00
2017,05,22,05,10,15.00
2017,05,22,05,11,15.00
2017,05,22,05,12,15.00
2017,05,22,05,13,15.00
2017,05,22,05,14,15.00
2017,05,22,05,15,15.00
2017,05,22,05,16,15.00
2017,05,22,05,17,15.00
2017,05,22,05,18,14.90
2017,05,22,05,19,14.80
2017,05,22,05,20,14.80
2017,05,22,05,21,14.70
2017,05,22,05,22,14.60
2017,05,22,05,23,14.60
2017,05,22,05,24,14.50
2017,05,22,05,25,14.50
2017,05,22,05,26,14.40
2017,05,22,05,27,14.40
2017,05,22,05,28,14.50
2017,05,22,05,29,14.50
2017,05,22,05,30,14.50
2017,05,22,05,31,14.50
2017,05,22,05,32,14.50
2017,05,22,05,33,14.50
2017,05,22,05,34,14.50
2017,05,22,05,35,14.50
2017,05,22,05,36,14.40
2017,05,22,05,37,14.40
2017,05,22,05,38,14.40
2017,05,22,05,39,14.40
2017,05,22,05,40,14.40
2017,05,22,05,41,14.40
2017,05,22,05,42,14.40
2017,05,22,05,43,14.40
2017,05,22,05,44,14.40
2017,05,22,05,45,14.40
2017,05,22,05,46,14.40
2017,05,22,05,47,14.40
2017,05,22,05,48,14.40
2017,05,22,05,49,14.40
2017,05,22,05,50,14.40
2017,05,22,05,51,14.50
2017,05,22,05,52,14.50
2017,05,22,05,53,14.50
2017,05,22,05,54,14.40
2017,05,22,05,55,14.40
2017,05,22,05,56,14.40
2017,05,22,05,57,14.40
2017,05,22,05,58,14.30
2017,05,22,05,59,14.30
2017,05,22,06,00,14.30
2017,05,22,06,01,14.30
2017,05,22,06,02,14.30
2017,05,22,06,03,14.30
2017,05,22,06,04,14.20
2017,05,22,06,05,14.20
2017,05,22,06,06,14.20
2017,05,22,06,07,14.20
2017,05,22,06,08,14.10
2017,05,22,06,09,14.10
2017,05,22,06,10,14.10
2017,05,22,06,11,14.10
2017,05,22,06,12,14.10
2017,05,22,06,13,14.10
2017,05,22,06,14,14.10
2017,05,22,06,15,14.10
2017,05,22,06,16,14.10
2017,05,22,06,17,14.10
2017,05,22,06,18,14.10
2017,05,22,06,19,14.10
2017,05,22,06,20,14.10
2017,05,22,06,21,14.10
2017,05,22,06,22,14.10
2017,05,22,06,23,14.10
2017,05,22,06,24,14.20
2017,05,22,06,25,14.20
2017,05,22,06,26,14.20
2017,05,22,06,27,14.20
2017,05,22,06,28,14.30
2017,05,22,06,29,14.30
2017,05,22,06,30,14.40
2017,05,22,06,31,14.50
2017,05,22,06,32,14.50
2017,05,22,06,33,14.60
2017,05,22,06,34,14.60
2017,05,22,06,35,14.60
2017,05,22,06,36,14.70
2017,05,22,06,37,14.70
2017,05,22,06,38,14.70
2017,05,22,06,39,14.70
2017,05,22,06,40,14.80
2017,05,22,06,41,14.80
2017,05,22,06,42,14.80
2017,05,22,06,43,14.90
2017,05,22,06,44,14.90
2017,05,22,06,45,15.00
2017,05,22,06,46,15.00
2017,05,22,06,47,15.00
2017,05,22,06,48,15.00
2017,05,22,06,49,15.00
2017,05,22,06,50,15.00
2017,05,22,06,51,15.00
2017,05,22,06,52,15.00
2017,05,22,06,53,15.00
2017,05,22,06,54,15.00
2017,05,22,06,55,15.00
2017,05,22,06,56,15.00
2017,05,22,06,57,15.00
2017,05,22,06,58,15.00
2017,05,22,06,59,15.00
2017,05,22,07,00,15.00
2017,05,22,07,01,15.00
2017,05,22,07,02,15.00
2017,05,22,07,03,15.00
2017,05,22,07,04,15.10
2017,05,22,07,05,15.20
2017,05,22,07,06,15.30
2017,05,22,07,07,15.40
2017,05,22,07,08,15.50
2017,05,22,07,09,15.60
2017,05,22,07,10,15.70
2017,05,22,07,11,15.80
2017,05,22,07,12,15.90
2017,05,22,07,13,16.00
2017,05,22,07,14,16.10
2017,05,22,07,15,16.20
2017,05,22,07,16,16.30
2017,05,22,07,17,16.50
2017,05,22,07,18,16.60
2017,05,22,07,19,16.70
2017,05,22,07,20,16.80
2017,05,22,07,21,17.00
2017,05,22,07,22,17.10
2017,05,22,07,23,17.20
2017,05,22,07,24,17.40
2017,05,22,07,25,17.50
2017,05,22,07,26,17.60
2017,05,22,07,27,17.70
2017,05,22,07,28,17.70
2017,05,22,07,29,17.80
2017,05,22,07,30,17.90
2017,05,22,07,31,18.00
2017,05,22,07,32,18.10
2017,05,22,07,33,18.10
2017,05,22,07,34,18.20
2017,05,22,07,35,18.30
2017,05,22,07,36,18.30
2017,05,22,07,37,18.50
2017,05,22,07,38,18.50
2017,05,22,07,39,18.60
2017,05,22,07,40,18.70
2017,05,22,07,41,18.70
2017,05,22,07,42,18.70
2017,05,22,07,43,18.80
2017,05,22,07,44,18.80
2017,05,22,07,45,18.80
2017,05,22,07,46,18.90
2017,05,22,07,47,18.90
2017,05,22,07,48,18.90
2017,05,22,07,49,18.90
2017,05,22,07,50,18.90
2017,05,22,07,51,19.00
2017,05,22,07,52,19.10
2017,05,22,07,53,19.10
2017,05,22,07,54,19.10
2017,05,22,07,55,19.10
2017,05,22,07,56,19.10
2017,05,22,07,57,19.10
2017,05,22,07,58,19.10
2017,05,22,07,59,19.10
2017,05,22,08,00,19.10
2017,05,22,08,01,19.10
2017,05,22,08,02,19.20
2017,05,22,08,03,19.20
2017,05,22,08,04,19.30
2017,05,22,08,05,19.30
2017,05,22,08,06,19.30
2017,05,22,08,07,19.30
2017,05,22,08,08,19.30
2017,05,22,08,09,19.20
2017,05,22,08,10,19.20
2017,05,22,08,11,19.20
2017,05,22,08,12,19.20
2017,05,22,08,13,19.10
2017,05,22,08,14,19.10
2017,05,22,08,15,19.10
2017,05,22,08,16,19.10
2017,05,22,08,17,19.00
2017,05,22,08,18,19.00
2017,05,22,08,19,19.10
2017,05,22,08,20,19.10
2017,05,22,08,21,19.20
2017,05,22,08,22,19.20
2017,05,22,08,23,19.20
2017,05,22,08,24,19.30
2017,05,22,08,25,19.30
2017,05,22,08,26,19.30
2017,05,22,08,27,19.40
2017,05,22,08,28,19.40
2017,05,22,08,29,19.30
2017,05,22,08,30,19.30
2017,05,22,08,31,19.30
2017,05,22,08,32,19.30
2017,05,22,08,33,19.30
2017,05,22,08,34,19.30
2017,05,22,08,35,19.40
2017,05,22,08,36,19.40
2017,05,22,08,37,19.40
2017,05,22,08,38,19.40
2017,05,22,08,39,19.40
2017,05,22,08,40,19.50
2017,05,22,08,41,19.60
2017,05,22,08,42,19.60
2017,05,22,08,43,19.70
2017,05,22,08,44,19.70
2017,05,22,08,45,19.70
2017,05,22,08,46,19.70
2017,05,22,08,47,19.70
2017,05,22,08,48,19.70
2017,05,22,08,49,19.60
2017,05,22,08,50,19.60
2017,05,22,08,51,19.60
2017,05,22,08,52,19.50
2017,05,22,08,53,19.50
2017,05,22,08,54,19.60
2017,05,22,08,55,19.60
2017,05,22,08,56,19.60
2017,05,22,08,57,19.70
2017,05,22,08,58,19.70
2017,05,22,08,59,19.80
2017,05,22,09,00,19.80
2017,05,22,09,01,19.90
2017,05,22,09,02,20.00
2017,05,22,09,03,20.00
2017,05,22,09,04,20.10
2017,05,22,09,05,20.00
2017,05,22,09,06,20.00
2017,05,22,09,07,19.90
2017,05,22,09,08,19.80
2017,05,22,09,09,19.70
2017,05,22,09,10,19.70
2017,05,22,09,11,19.60
2017,05,22,09,12,19.50
2017,05,22,09,13,19.40
2017,05,22,09,14,19.30
2017,05,22,09,15,19.30
2017,05,22,09,16,19.30
2017,05,22,09,17,19.30
2017,05,22,09,18,19.30
2017,05,22,09,19,19.40
2017,05,22,09,20,19.50
2017,05,22,09,21,19.50
2017,05,22,09,22,19.60
2017,05,22,09,23,19.60
2017,05,22,09,24,19.70
2017,05,22,09,25,19.70
2017,05,22,09,26,19.70
2017,05,22,09,27,19.70
2017,05,22,09,28,19.70
2017,05,22,09,29,19.80
2017,05,22,09,30,19.80
2017,05,22,09,31,19.80
2017,05,22,09,32,19.80
2017,05,22,09,33,19.80
2017,05,22,09,34,19.90
2017,05,22,09,35,19.90
2017,05,22,09,36,20.00
2017,05,22,09,37,20.00
2017,05,22,09,38,20.00
2017,05,22,09,39,20.00
2017,05,22,09,40,20.00
2017,05,22,09,41,20.00
2017,05,22,09,42,20.00
2017,05,22,09,43,20.00
2017,05,22,09,44,19.90
2017,05,22,09,45,19.80
2017,05,22,09,46,19.80
2017,05,22,09,47,19.80
2017,05,22,09,48,19.80
2017,05,22,09,49,19.80
2017,05,22,09,50,19.80
2017,05,22,09,51,19.80
2017,05,22,09,52,19.80
2017,05,22,09,53,19.80
2017,05,22,09,54,19.80
2017,05,22,09,55,19.70
2017,05,22,09,56,19.70
2017,05,22,09,57,19.70
2017,05,22,09,58,19.70
2017,05,22,09,59,19.70
2017,05,22,10,00,19.70
2017,05,22,10,01,19.70
2017,05,22,10,02,19.70
2017,05,22,10,03,19.60
2017,05,22,10,04,19.60
2017,05,22,10,05,19.60
2017,05,22,10,06,19.60
2017,05,22,10,07,19.50
2017,05,22,10,08,19.40
2017,05,22,10,09,19.40
2017,05,22,10,10,19.30
2017,05,22,10,11,19.20
2017,05,22,10,12,19.20
2017,05,22,10,13,19.20
2017,05,22,10,14,19.20
2017,05,22,10,15,19.20
2017,05,22,10,16,19.20
2017,05,22,10,17,19.20
2017,05,22,10,18,19.30
2017,05,22,10,19,19.40
2017,05,22,10,20,19.40
2017,05,22,10,21,19.50
2017,05,22,10,22,19.50
2017,05,22,10,23,19.60
2017,05,22,10,24,19.60
2017,05,22,10,25,19.70
2017,05,22,10,26,19.70
2017,05,22,10,27,19.70
2017,05,22,10,28,19.90
2017,05,22,10,29,20.00
2017,05,22,10,30,20.00
2017,05,22,10,31,20.10
2017,05,22,10,32,20.10
2017,05,22,10,33,20.10
2017,05,22,10,34,20.00
2017,05,22,10,35,20.00
2017,05,22,10,36,19.90
2017,05,22,10,37,19.80
2017,05,22,10,38,19.80
2017,05,22,10,39,19.70
2017,05,22,10,40,19.60
2017,05,22,10,41,19.50
2017,05,22,10,42,19.40
2017,05,22,10,43,19.30
2017,05,22,10,44,19.20
2017,05,22,10,45,19.20
2017,05,22,10,46,19.10
2017,05,22,10,47,19.10
2017,05,22,10,48,19.10
2017,05,22,10,49,19.10
2017,05,22,10,50,19.10
2017,05,22,10,51,19.20
2017,05,22,10,52,19.30
2017,05,22,10,53,19.40
2017,05,22,10,54,19.50
2017,05,22,10,55,19.50
2017,05,22,10,56,19.60
2017,05,22,10,57,19.70
2017,05,22,10,58,19.70
2017,05,22,10,59,19.80
2017,05,22,11,00,19.80
2017,05,22,11,01,19.90
2017,05,22,11,02,19.90
2017,05,22,11,03,19.90
2017,05,22,11,04,19.90
2017,05,22,11,05,19.90
2017,05,22,11,06,19.90
2017,05,22,11,07,19.90
2017,05,22,11,08,19.90
2017,05,22,11,09,19.80
2017,05,22,11,10,19.70
2017,05,22,11,11,19.60
2017,05,22,11,12,19.60
2017,05,22,11,13,19.50
2017,05,22,11,14,19.40
2017,05,22,11,15,19.40
2017,05,22,11,16,19.40
2017,05,22,11,17,19.50
2017,05,22,11,18,19.50
2017,05,22,11,19,19.60
2017,05,22,11,20,19.60
2017,05,22,11,21,19.70
2017,05,22,11,22,19.70
2017,05,22,11,23,19.80
2017,05,22,11,24,20.00
2017,05,22,11,25,20.10
2017,05,22,11,26,20.20
2017,05,22,11,27,20.40
2017,05,22,11,28,20.40
2017,05,22,11,29,20.50
2017,05,22,11,30,20.50
2017,05,22,11,31,20.50
2017,05,22,11,32,20.50
2017,05,22,11,33,20.40
2017,05,22,11,34,20.40
2017,05,22,11,35,20.40
2017,05,22,11,36,20.40
2017,05,22,11,37,20.30
2017,05,22,11,38,20.30
2017,05,22,11,39,20.30
2017,05,22,11,40,20.30
2017,05,22,11,41,20.30
2017,05,22,11,42,20.40
2017,05,22,11,43,20.50
2017,05,22,11,44,20.60
2017,05,22,11,45,20.70
2017,05,22,11,46,20.80
2017,05,22,11,47,20.80
2017,05,22,11,48,20.90
2017,05,22,11,49,20.90
2017,05,22,11,50,20.80
2017,05,22,11,51,20.80
2017,05,22,11,52,20.70
2017,05,22,11,53,20.70
2017,05,22,11,54,20.60
2017,05,22,11,55,20.60
2017,05,22,11,56,20.50
2017,05,22,11,57,20.50
2017,05,22,11,58,20.40
2017,05,22,11,59,20.50
2017,05,22,12,00,20.50
2017,05,22,12,01,20.60
2017,05,22,12,02,20.70
2017,05,22,12,03,20.80
2017,05,22,12,04,20.90
2017,05,22,12,05,21.00
2017,05,22,12,06,21.20
2017,05,22,12,07,21.30
2017,05,22,12,08,21.40
2017,05,22,12,09,21.40
2017,05,22,12,10,21.50
2017,05,22,12,11,21.60
2017,05,22,12,12,21.50
2017,05,22,12,13,21.50
2017,05,22,12,14,21.50
2017,05,22,12,15,21.40
2017,05,22,12,16,21.30
2017,05,22,12,17,21.30
2017,05,22,12,18,21.30
2017,05,22,12,19,21.20
2017,05,22,12,20,21.20
2017,05,22,12,21,21.10
2017,05,22,12,22,20.90
2017,05,22,12,23,20.80
2017,05,22,12,24,20.70
2017,05,22,12,25,20.70
2017,05,22,12,26,20.60
2017,05,22,12,27,20.50
2017,05,22,12,28,20.40
2017,05,22,12,29,20.40
2017,05,22,12,30,20.40
2017,05,22,12,31,20.40
2017,05,22,12,32,20.50
2017,05,22,12,33,20.60
2017,05,22,12,34,20.60
2017,05,22,12,35,20.70
2017,05,22,12,36,20.70
2017,05,22,12,37,20.80
2017,05,22,12,38,20.90
2017,05,22,12,39,21.00
2017,05,22,12,40,21.10
2017,05,22,12,41,21.20
2017,05,22,12,42,21.30
2017,05,22,12,43,21.40
2017,05,22,12,44,21.50
2017,05,22,12,45,21.60
2017,05,22,12,46,21.60
2017,05,22,12,47,21.70
2017,05,22,12,48,21.60
2017,05,22,12,49,21.60
2017,05,22,12,50,21.60
2017,05,22,12,51,21.60
2017,05,22,12,52,21.60
2017,05,22,12,53,21.70
2017,05,22,12,54,21.70
2017,05,22,12,55,21.70
2017,05,22,12,56,21.80
2017,05,22,12,57,21.80
2017,05,22,12,58,21.80
2017,05,22,12,59,21.80
2017,05,22,13,00,21.90
2017,05,22,13,01,22.00
2017,05,22,13,02,21.90
2017,05,22,13,03,21.90
2017,05,22,13,04,21.90
2017,05,22,13,05,21.90
2017,05,22,13,06,21.90
2017,05,22,13,07,21.90
2017,05,22,13,08,21.90
2017,05,22,13,09,21.90
2017,05,22,13,10,21.90
2017,05,22,13,11,21.90
2017,05,22,13,12,21.80
2017,05,22,13,13,21.80
2017,05,22,13,14,21.80
2017,05,22,13,15,21.80
2017,05,22,13,16,21.80
2017,05,22,13,17,21.80
2017,05,22,13,18,21.70
2017,05,22,13,19,21.70
2017,05,22,13,20,21.70
2017,05,22,13,21,21.70
2017,05,22,13,22,21.70
2017,05,22,13,23,21.70
2017,05,22,13,24,21.80
2017,05,22,13,25,22.00
2017,05,22,13,26,22.10
2017,05,22,13,27,22.30
2017,05,22,13,28,22.40
2017,05,22,13,29,22.50
2017,05,22,13,30,22.60
2017,05,22,13,31,22.60
2017,05,22,13,32,22.70
2017,05,22,13,33,22.80
2017,05,22,13,34,22.80
2017,05,22,13,35,22.90
2017,05,22,13,36,23.00
2017,05,22,13,37,23.00
2017,05,22,13,38,23.00
2017,05,22,13,39,23.00
2017,05,22,13,40,23.10
2017,05,22,13,41,23.10
2017,05,22,13,42,23.10
2017,05,22,13,43,23.10
2017,05,22,13,44,23.00
2017,05,22,13,45,22.90
2017,05,22,13,46,22.80
2017,05,22,13,47,22.70
2017,05,22,13,48,22.70
2017,05,22,13,49,22.60
2017,05,22,13,50,22.60
2017,05,22,13,51,22.50
2017,05,22,13,52,22.50
2017,05,22,13,53,22.50
2017,05,22,13,54,22.50
2017,05,22,13,55,22.60
2017,05,22,13,56,22.60
2017,05,22,13,57,22.70
2017,05,22,13,58,22.70
2017,05,22,13,59,22.80
2017,05,22,14,00,22.80
2017,05,22,14,01,22.90
2017,05,22,14,02,22.90
2017,05,22,14,03,22.90
2017,05,22,14,04,22.90
2017,05,22,14,05,22.90
2017,05,22,14,06,22.90
2017,05,22,14,07,22.90
2017,05,22,14,08,22.90
2017,05,22,14,09,22.90
2017,05,22,14,10,22.90
2017,05,22,14,11,22.90
2017,05,22,14,12,23.00
2017,05,22,14,13,23.10
2017,05,22,14,14,23.10
2017,05,22,14,15,23.20
2017,05,22,14,16,23.20
2017,05,22,14,17,23.30
2017,05,22,14,18,23.30
2017,05,22,14,19,23.40
2017,05,22,14,20,23.40
2017,05,22,14,21,23.40
2017,05,22,14,22,23.30
2017,05,22,14,23,23.30
2017,05,22,14,24,23.30
2017,05,22,14,25,23.30
2017,05,22,14,26,23.30
2017,05,22,14,27,23.30
2017,05,22,14,28,23.30
2017,05,22,14,29,23.30
2017,05,22,14,30,23.30
2017,05,22,14,31,23.30
2017,05,22,14,32,23.30
2017,05,22,14,33,23.30
2017,05,22,14,34,23.30
2017,05,22,14,35,23.30
2017,05,22,14,36,23.30
2017,05,22,14,37,23.30
2017,05,22,14,38,23.30
2017,05,22,14,39,23.30
2017,05,22,14,40,23.30
2017,05,22,14,41,23.30
2017,05,22,14,42,23.30
2017,05,22,14,43,23.30
2017,05,22,14,44,23.30
2017,05,22,14,45,23.40
2017,05,22,14,46,23.40
2017,05,22,14,47,23.40
2017,05,22,14,48,23.50
2017,05,22,14,49,23.60
2017,05,22,14,50,23.70
2017,05,22,14,51,23.70
2017,05,22,14,52,23.60
2017,05,22,14,53,23.60
2017,05,22,14,54,23.60
2017,05,22,14,55,23.60
2017,05,22,14,56,23.60
2017,05,22,14,57,23.60
2017,05,22,14,58,23.70
2017,05,22,14,59,23.70
2017,05,22,15,00,23.70
2017,05,22,15,01,23.70
2017,05,22,15,02,23.60
2017,05,22,15,03,23.60
2017,05,22,15,04,23.60
2017,05,22,15,05,23.70
2017,05,22,15,06,23.70
2017,05,22,15,07,23.70
2017,05,22,15,08,23.80
2017,05,22,15,09,23.90
2017,05,22,15,10,23.90
2017,05,22,15,11,24.00
2017,05,22,15,12,24.10
2017,05,22,15,13,24.20
2017,05,22,15,14,24.30
2017,05,22,15,15,24.40
2017,05,22,15,16,24.50
2017,05,22,15,17,24.60
2017,05,22,15,18,24.80
2017,05,22,15,19,24.80
2017,05,22,15,20,24.80
2017,05,22,15,21,24.80
2017,05,22,15,22,24.80
2017,05,22,15,23,24.80
2017,05,22,15,24,24.80
2017,05,22,15,25,24.80
2017,05,22,15,26,24.80
2017,05,22,15,27,24.80
2017,05,22,15,28,24.90
2017,05,22,15,29,24.90
2017,05,22,15,30,24.90
2017,05,22,15,31,24.90
2017,05,22,15,32,25.00
2017,05,22,15,33,25.00
2017,05,22,15,34,25.20
2017,05,22,15,35,25.30
2017,05,22,15,36,25.40
2017,05,22,15,37,25.40
2017,05,22,15,38,25.50
2017,05,22,15,39,25.60
2017,05,22,15,40,25.70
2017,05,22,15,41,25.80
2017,05,22,15,42,25.90
2017,05,22,15,43,25.90
2017,05,22,15,44,25.90
2017,05,22,15,45,26.00
2017,05,22,15,46,26.10
2017,05,22,15,47,26.10
2017,05,22,15,48,26.10
2017,05,22,15,49,26.20
2017,05,22,15,50,26.20
2017,05,22,15,51,26.30
2017,05,22,15,52,26.30
2017,05,22,15,53,26.40
2017,05,22,15,54,26.40
2017,05,22,15,55,26.40
2017,05,22,15,56,26.40
2017,05,22,15,57,26.30
2017,05,22,15,58,26.10
2017,05,22,15,59,26.00
2017,05,22,16,00,25.80
2017,05,22,16,01,25.60
2017,05,22,16,02,25.40
2017,05,22,16,03,25.30
2017,05,22,16,04,25.30
2017,05,22,16,05,25.30
2017,05,22,16,06,25.30
2017,05,22,16,07,25.30
2017,05,22,16,08,25.20
2017,05,22,16,09,25.20
2017,05,22,16,10,25.20
2017,05,22,16,11,25.10
2017,05,22,16,12,25.00
2017,05,22,16,13,24.90
2017,05,22,16,14,24.70
2017,05,22,16,15,24.60
2017,05,22,16,16,24.50
2017,05,22,16,17,24.40
2017,05,22,16,18,24.40
2017,05,22,16,19,24.40
2017,05,22,16,20,24.40
2017,05,22,16,21,24.40
2017,05,22,16,22,24.40
2017,05,22,16,23,24.50
2017,05,22,16,24,24.60
2017,05,22,16,25,24.70
2017,05,22,16,26,24.80
2017,05,22,16,27,24.80
2017,05,22,16,28,24.90
2017,05,22,16,29,24.90
2017,05,22,16,30,25.00
2017,05,22,16,31,25.10
2017,05,22,16,32,25.20
2017,05,22,16,33,25.30
2017,05,22,16,34,25.40
2017,05,22,16,35,25.50
2017,05,22,16,36,25.60
2017,05,22,16,37,25.70
2017,05,22,16,38,25.70
2017,05,22,16,39,25.80
2017,05,22,16,40,25.80
2017,05,22,16,41,25.90
2017,05,22,16,42,25.90
2017,05,22,16,43,25.90
2017,05,22,16,44,26.00
2017,05,22,16,45,26.00
2017,05,22,16,46,26.10
2017,05,22,16,47,26.10
2017,05,22,16,48,26.10
2017,05,22,16,49,26.00
2017,05,22,16,50,26.00
2017,05,22,16,51,25.90
2017,05,22,16,52,25.90
2017,05,22,16,53,25.90
2017,05,22,16,54,25.80
2017,05,22,16,55,25.70
2017,05,22,16,56,25.60
2017,05,22,16,57,25.60
2017,05,22,16,58,25.50
2017,05,22,16,59,25.50
2017,05,22,17,00,25.40
2017,05,22,17,01,25.40
2017,05,22,17,02,25.40
2017,05,22,17,03,25.40
2017,05,22,17,04,25.40
2017,05,22,17,05,25.40
2017,05,22,17,06,25.50
2017,05,22,17,07,25.50
2017,05,22,17,08,25.60
2017,05,22,17,09,25.60
2017,05,22,17,10,25.60
2017,05,22,17,11,25.60
2017,05,22,17,12,25.60
2017,05,22,17,13,25.60
2017,05,22,17,14,25.60
2017,05,22,17,15,25.60
2017,05,22,17,16,25.60
2017,05,22,17,17,25.60
2017,05,22,17,18,25.60
2017,05,22,17,19,25.60